Weather in Bolshebrusyanskoye

Russia / Sverdlovsk Oblast     56°38′14″N   61°14′24″E
temp.,
°C
wind,
m/s
gust,
m/s
humid.,
%
clouds,
%
prec.,
mm/h
press.,
hPa
HPBL,
m
17 april, sat
sat1723:00+3ene23630 0.0 102841
02:00+1e22690 0.0 102814
05:000s11710 0.0 102810
08:00+4sw12560 0.0 1027174
11:00+9wsw22400 0.0 1025931
14:00+11wnw34335 0.0 10231966
17:00+11nw453317 0.0 10212062
20:00+7nw25525 0.0 102172
18 april, sun
sun1823:00+4wnw39685 0.0 1021229
02:00+3w311765 0.0 1019329
05:00+3w513780 0.0 1017471
08:00+4nw6127229 0.0 1017970
11:00+4n7953100 0.6 10211501
14:00+3nne7838100 0.0 10242233
17:00+3nne6732100 0.0 10272233
20:00−1ne49375 0.0 1030646
19 april, mon
mon1923:00−3ne27470 0.0 1032327
02:00−3ne26490 0.0 1034381
05:00−4ne24540 0.0 1035143
08:00−3ne35380 0.0 10371136
11:000ne35315 0.0 10361778
14:00+2ne352896 0.0 10352169
17:00+3nne353097 0.0 10352129
20:00−1ne22485 0.0 103511
20 april, tue
tue2023:00−3ene00510 0.0 103610
02:00−3wsw11530 0.0 103611
05:00−3w245615 0.0 103795
08:00+1w47403 0.0 1036405
11:00+5wnw56325 0.0 10341316
14:00+8wnw572819 0.0 10321630
17:00+9nw57335 0.0 10311644
20:00+4wnw37550 0.0 1031146
21 april, wed
wed2123:00+2wnw310660 0.0 1032232
02:000wnw38740 0.0 1033155
05:00−1nw25760 0.0 1034110
08:00+3nw24580 0.0 1034242
11:00+8nw23430 0.0 1034960
14:00+12n12360 0.0 10331292
17:00+12nne01350 0.0 10331452
20:00+9se11490 0.0 103410